Terminal Aerodrome Forecast
Issued by NWS Mt. Holly, NJ

Home | Current Version | Previous Version | Text Only | Print | Product List | Glossary On
Versions: 1 2 3 4 5 6 7 8 9 10 11
000
FTUS41 KPHI 281500 AAA
TAFACY
TAF AMD
KACY 281504Z 2815/2912 24006KT P6SM BKN100
     FM282000 28008KT 6SM -SHRA OVC050
      TEMPO 2821/2824 6SM -SHRA BKN025
     FM290100 33006KT P6SM SCT025 OVC100
      TEMPO 2904/2908 P6SM -RA OVC050=

USA.gov is the U.S. government's official web portal to all federal, state and local government web resources and services.